Cross City, FL

4:07 AM EDT on August 04, 2015 (GMT -0400)
Old Town | | Change Station
CLOSE
Current Station
Personal Weather Station
Location: Old Town, FL
Elevation: 46 ft
Nearby Weather Stations
Active Advisory: Flood Warning Active Notice: Record Report

Elev 46 ft 29.50 °N, 83.02 °W | Updated 12 minutes ago

Partly Cloudy
Partly Cloudy
77.1 °F
Feels Like 78 °F
N
0.0
Wind Variable Wind from East
Gusts 4.0 mph

Today
High -- | Low -- °F
--% Chance of Precip.
Yesterday
High -- | Low -- °F
Precip. -- in
6:53 AM 8:22 PM
Waning Gibbous, 80% visible
Pressure 29.93 in
Visibility 5.0 miles
Clouds Clear
Heat Index 78 °F
Dew Point 77 °F
Humidity 98%
Rainfall 0.00 in
Snow Depth Not available.
UV 0 out of 12
Pollen 3.70 out of 12
Air Quality Not available.
Flu Activity Not available.
METAR K40J 040755Z AUTO 00000KT 5SM BR CLR 24/24 A2993 RMK AO2 T02410241

More Conditions Fewer Conditions

Pressure 29.93 in
Visibility 5.0 miles
Clouds Clear
Heat Index 78 °F
Dew Point 77 °F
Humidity 98%
Rainfall 0.00 in
Snow Depth Not available.
UV 0 out of 12
Pollen 3.70 out of 12
Air Quality Not available.
Flu Activity Not available.
METAR K40J 040755Z AUTO 00000KT 5SM BR CLR 24/24 A2993 RMK AO2 T02410241

More Conditions Fewer Conditions

10-Day Weather Forecast

×

Almanac

Astronomy

Aug. 04, 2015 Rise Set
Actual Time
Civil Twilight
Nautical Twilight
Astronomical Twilight
Moon
Length of Visible Light
Length of Day
Tomorrow will be .
, % of the Moon is Illuminated

Today's Extremes

State Highs State Lows

Community

WunderPhotos

Upload Photos

1,843,877 photos uploaded!

WunderBlogs® & News

Nearby

Air Quality

  Air Quality AQ Index Pollutant
Not available.

Snow Depth

Station Depth Elevation

Earthquake Activity

City Distance Mag. Time & Date
Minimum magnitude displayed is 2.5.

Coastal Water Temperatures

Place Temperature

Stations

Nearby Weather Stations

Station Location Temp. Windchill Dew Point Humidity Wind Precip. Elev Updated Type
                   
Flood Warning
Statement as of 9:59 AM EDT on August 03, 2015

The Flood Warning continues for
the Steinhatchee River near Steinhatchee (us 19).
* Until further notice.
* At 8:45 am Monday the stage was 15.6 feet.
* Minor flooding is occurring and will continue.
* Flood stage is 12.2 feet.
* Forecast: the river will crest this morning near 15.7 feet and then
begin to slowly fall.
* Impact: at 15.7 feet: water has flooded all of River Road NE and
Ancient Oaks private roads up to 3 feet deep in some areas. All
houses and Mobile homes now have water flowing underneath. Water is
also flooding property and is under some houses on cooey island
near Palm street NE.


Lat... Lon 2982 8335 2973 8337 2968 8343 2964 8340 2967 8333 2982 8328